This is the latest recevied weather packets stored in our database for station/object N0ZMJ-4. If no packets are shown the sender has not sent any weather packets the latest 10 day(s).
| Time | Temp. | Humidity | Pressure | Rain* | Wind** | Luminosity | Snow |
|---|---|---|---|---|---|---|---|
| 1777530003 | 5.56° C | 93% | 1017.5 hPa | 0 mm | - | - | - |
| 1777529703 | 5.56° C | 93% | 1017.5 hPa | 0 mm | - | - | - |
| 1777529403 | 5.56° C | 92% | 1017.5 hPa | 0 mm | - | - | - |
| 1777529103 | 5.56° C | 91% | 1017.5 hPa | 0 mm | - | - | - |
| 1777528803 | 5.56° C | 91% | 1017.5 hPa | 3.05 mm | - | - | - |
| 1777528503 | 5.56° C | 91% | 1017.7 hPa | 2.29 mm | - | - | - |
| 1777528203 | 5.56° C | 90% | 1017.7 hPa | 1.78 mm | - | - | - |
| 1777527903 | 6.11° C | 90% | 1017.7 hPa | 1.52 mm | - | - | - |
| 1777527603 | 6.11° C | 90% | 1017.6 hPa | 1.27 mm | - | - | - |
| 1777527302 | 6.11° C | 88% | 1017.6 hPa | 0.51 mm | - | - | - |
| 1777527003 | 6.67° C | 87% | 1017.5 hPa | 0.25 mm | - | - | - |
| 1777526703 | 6.67° C | 86% | 1017.2 hPa | 0 mm | - | - | - |
| 1777526403 | 6.67° C | 86% | 1017.1 hPa | 0 mm | - | - | - |
| 1777526103 | 6.67° C | 86% | 1016.9 hPa | 0 mm | - | - | - |
| 1777525803 | 6.67° C | 86% | 1016.8 hPa | 0 mm | - | - | - |
| 1777525503 | 6.67° C | 84% | 1016.7 hPa | 0 mm | - | - | - |
| 1777525203 | 7.22° C | 84% | 1016.7 hPa | 0.25 mm | - | - | - |
| 1777524903 | 7.22° C | 83% | 1016.8 hPa | 0.25 mm | - | - | - |
| 1777524602 | 7.22° C | 83% | 1016.8 hPa | 0.25 mm | - | - | - |
| 1777524303 | 7.22° C | 83% | 1016.9 hPa | 0.25 mm | - | - | - |
| 1777524003 | 7.78° C | 83% | 1016.8 hPa | 0.25 mm | - | - | - |
| 1777523703 | 7.78° C | 85% | 1016.8 hPa | 0.25 mm | - | - | - |
| 1777523403 | 7.78° C | 85% | 1016.8 hPa | 0.25 mm | - | - | - |
| 1777523103 | 7.78° C | 85% | 1016.7 hPa | 0.25 mm | - | - | - |
| 1777522803 | 7.78° C | 85% | 1016.7 hPa | 0.25 mm | - | - | - |
* Rain latest hour (hover to see other rain measurements)
** Current wind speed in m/s (hover to see current wind gust speed)